KF5JED-13 Weather Reports


time (UTC)temp
F
wind
direction
speed
knots
gust
knots
rain 1hr
in
rain 24hr
in
rain mn
in
humidity
%
barometer
mb
20260506160812 52 78 5.2 10.4 0.00 0.00 0.00 60 1016.2
20260506160308 52 91 7.8 9.6 0.00 0.00 0.00 61 1016.2
20260506155807 50 49 4.3 10.4 0.00 0.00 0.00 63 1016.3
20260506155306 51 82 6.1 7.8 0.00 0.00 0.00 61 1016.2
20260506153416 51 81 8.7 10.4 0.00 0.00 0.00 63 1016.0
20260506152914 50 81 7.8 13.0 0.00 0.00 0.00 61 1015.9
20260506152410 52 35 5.2 9.6 0.00 0.00 0.00 60 1015.9
20260506151909 50 45 6.1 9.6 0.00 0.00 0.00 62 1016.0
20260506151405 50 87 6.1 11.3 0.00 0.00 0.00 63 1015.9
20260506150903 49 104 5.2 8.7 0.00 0.00 0.00 63 1016.0
20260506150359 49 99 5.2 9.6 0.00 0.00 0.00 65 1016.0
20260506145855 49 102 7.8 15.6 0.00 0.00 0.00 63 1016.0
20260506145351 50 119 2.6 5.2 0.00 0.00 0.00 63 1016.0
20260506144849 48 99 4.3 8.7 0.00 0.00 0.00 65 1015.9
20260506144345 49 81 3.5 8.7 0.00 0.00 0.00 63 1015.6
20260506143845 49 83 7.0 9.6 0.00 0.00 0.00 64 1015.6
20260506143341 48 118 3.5 9.6 0.00 0.00 0.00 65 1015.3
20260506142839 48 98 7.0 11.3 0.00 0.00 0.00 67 1015.2
20260506142337 47 128 7.8 14.8 0.00 0.00 0.00 67 1015.0
20260506141835 47 126 8.7 14.8 0.00 0.00 0.00 68 1015.1
20260506141333 46 107 7.8 12.2 0.00 0.00 0.00 68 1015.2
20260506140831 47 93 7.0 11.3 0.00 0.00 0.00 69 1015.3
20260506140327 46 92 6.1 12.2 0.00 0.00 0.00 69 1015.3
20260506135824 45 92 7.8 18.2 0.00 0.00 0.00 70 1015.2
20260506135321 45 131 9.6 14.8 0.00 0.00 0.00 71 1015.2
20260506134817 44 104 10.4 13.9 0.00 0.00 0.00 72 1015.3
20260506134314 44 109 8.7 14.8 0.00 0.00 0.00 72 1015.3
20260506133811 44 87 7.8 13.0 0.00 0.00 0.00 73 1015.3
20260506133308 44 122 7.0 13.0 0.00 0.00 0.00 74 1015.3
20260506132804 44 117 7.8 12.2 0.00 0.00 0.00 74 1015.5
20260506132302 43 101 5.2 11.3 0.00 0.00 0.00 74 1015.7
20260506131800 43 102 7.8 13.9 0.00 0.00 0.00 75 1015.9
20260506131255 43 91 5.2 11.3 0.00 0.00 0.00 75 1016.1
20260506130752 43 107 6.1 9.6 0.00 0.00 0.00 75 1016.0
20260506130249 43 95 7.0 9.6 0.00 0.00 0.00 75 1015.9
20260506125747 43 113 5.2 8.7 0.00 0.00 0.00 75 1016.0
20260506125245 43 95 6.1 9.6 0.00 0.00 0.00 76 1016.0
20260506124743 42 105 4.3 9.6 0.00 0.00 0.00 76 1016.0
20260506124240 42 103 5.2 11.3 0.00 0.00 0.00 76 1015.6
20260506123738 42 100 6.1 9.6 0.00 0.00 0.00 76 1015.9
20260506123237 42 91 5.2 9.6 0.00 0.00 0.00 77 1015.9
20260506122733 42 110 6.1 8.7 0.00 0.00 0.00 77 1015.7
20260506122230 42 101 6.1 8.7 0.00 0.00 0.00 77 1015.6
20260506121728 42 112 3.5 8.7 0.00 0.00 0.00 77 1015.5
20260506121225 42 74 9.6 10.4 0.00 0.00 0.00 77 1015.5
20260506120722 42 85 7.0 11.3 0.00 0.00 0.00 78 1015.3
20260506120219 42 99 6.1 10.4 0.00 0.00 0.00 78 1015.0
20260506115717 42 108 9.6 12.2 0.00 0.00 0.00 78 1015.2
20260506115215 42 103 7.8 13.9 0.00 0.00 0.00 78 1015.2
20260506114713 42 104 12.2 15.6 0.00 0.00 0.00 79 1015.0
20260506114210 42 104 9.6 11.3 0.00 0.00 0.00 81 1015.2
20260506113708 42 87 7.0 11.3 0.00 0.00 0.00 82 1015.1
20260506113205 42 107 9.6 13.9 0.00 0.00 0.00 83 1015.0
20260506112701 42 77 9.6 12.2 0.00 0.00 0.00 84 1014.7
20260506112159 41 94 5.2 13.9 0.00 0.00 0.00 85 1014.7
20260506111657 41 102 6.1 13.0 0.00 0.00 0.00 86 1014.9
20260506111154 41 82 7.0 13.9 0.00 0.00 0.00 86 1014.9
20260506110651 42 88 9.6 12.2 0.00 0.00 0.00 86 1014.8
20260506110149 42 76 11.3 13.9 0.00 0.00 0.00 86 1015.2
20260506105645 42 72 8.7 13.9 0.00 0.00 0.00 86 1014.9
20260506105142 42 86 11.3 13.0 0.00 0.00 0.00 86 1015.1
20260506104640 42 80 10.4 13.9 0.00 0.00 0.00 86 1014.9
20260506104138 42 65 7.8 9.6 0.00 0.00 0.00 86 1014.8
20260506103635 43 78 10.4 10.4 0.00 0.00 0.00 86 1014.7
20260506103132 43 60 13.0 19.1 0.00 0.00 0.00 85 1014.9
20260506102630 43 94 11.3 16.5 0.00 0.00 0.00 85 1014.7
20260506102127 43 93 7.8 13.0 0.00 0.00 0.00 85 1014.8
20260506101623 43 79 7.8 11.3 0.00 0.00 0.00 85 1014.9
20260506101120 43 74 12.2 13.9 0.00 0.00 0.00 85 1014.7
20260506100619 43 61 9.6 13.9 0.00 0.00 0.00 85 1014.3
20260506100116 44 72 11.3 15.6 0.00 0.00 0.00 84 1014.5
20260506095615 44 69 6.1 13.0 0.00 0.00 0.00 83 1014.2
20260506095111 44 81 7.8 14.8 0.00 0.00 0.00 82 1014.1
20260506094609 44 85 7.8 13.9 0.00 0.00 0.00 82 1013.9
20260506094106 44 79 13.0 14.8 0.00 0.00 0.00 82 1013.8
20260506093605 44 91 11.3 13.9 0.00 0.00 0.00 81 1013.7
20260506093102 44 78 7.8 11.3 0.00 0.00 0.00 81 1013.6
20260506092600 44 67 10.4 15.6 0.00 0.00 0.00 81 1013.9
20260506092056 44 74 7.8 13.0 0.00 0.00 0.00 81 1013.7
20260506091554 44 74 7.0 11.3 0.00 0.00 0.00 81 1013.6
20260506091052 44 79 9.6 14.8 0.00 0.00 0.00 81 1013.5
20260506090549 44 75 8.7 14.8 0.00 0.00 0.00 81 1013.5
20260506090045 44 84 7.0 14.8 0.00 0.00 0.00 81 1013.6
20260506085542 44 66 8.7 16.5 0.00 0.00 0.00 81 1013.3
20260506085038 44 71 10.4 13.9 0.00 0.00 0.00 81 1013.7
20260506084536 44 83 7.8 11.3 0.00 0.00 0.00 81 1013.5
20260506084032 44 75 8.7 14.8 0.00 0.00 0.00 81 1013.7
20260506083529 44 70 12.2 15.6 0.00 0.00 0.00 80 1013.3
20260506083026 44 74 11.3 13.0 0.00 0.00 0.00 81 1013.6
20260506082523 44 87 7.0 10.4 0.00 0.00 0.00 81 1013.7
20260506082019 44 83 6.1 11.3 0.00 0.00 0.00 81 1013.3
20260506081517 44 72 7.8 13.0 0.00 0.00 0.00 80 1013.3
20260506081015 44 88 7.8 12.2 0.00 0.00 0.00 80 1013.3
20260506080512 44 78 8.7 8.7 0.00 0.00 0.00 80 1013.2
20260506073455 43 70 7.8 14.8 0.00 0.00 0.00 81 1012.5
20260506072952 43 81 9.6 14.8 0.00 0.00 0.00 81 1012.5
20260506072449 43 74 9.6 12.2 0.00 0.00 0.00 82 1012.6
20260506071947 43 71 7.8 11.3 0.00 0.00 0.00 82 1013.0
20260506071445 43 43 5.2 9.6 0.00 0.00 0.00 82 1013.3
20260506070942 42 61 6.1 7.8 0.00 0.00 0.00 82 1013.7
20260506070439 42 4 7.8 9.6 0.00 0.00 0.00 82 1013.6
20260506062416 44 69 8.7 11.3 0.00 0.00 0.00 79 1013.2
20260506061912 44 63 9.6 13.0 0.00 0.00 0.00 78 1013.1
20260506061409 44 77 9.6 16.5 0.00 0.00 0.00 78 1012.9
20260506060907 44 66 9.6 13.0 0.00 0.00 0.00 77 1012.9
20260506060404 44 65 9.6 11.3 0.00 0.00 0.00 77 1012.8
20260506051336 45 82 7.0 13.9 0.00 0.00 0.00 73 1011.9
20260506050834 46 84 6.1 11.3 0.00 0.00 0.00 73 1011.7
20260506050331 46 84 9.6 13.9 0.00 0.00 0.00 72 1011.5
20260506044822 46 83 9.6 13.0 0.00 0.00 0.00 71 1011.8
20260506044320 47 87 11.3 14.8 0.00 0.00 0.00 70 1011.7
20260506043816 47 87 7.8 18.2 0.00 0.00 0.00 69 1011.7
20260506043314 47 78 7.8 10.4 0.00 0.00 0.00 68 1011.7
20260506042812 47 79 7.8 12.2 0.00 0.00 0.00 67 1011.8
20260506042311 48 95 7.0 11.3 0.00 0.00 0.00 66 1011.6
20260506041809 48 74 8.7 12.2 0.00 0.00 0.00 66 1011.6
20260506041305 49 87 10.4 13.0 0.00 0.00 0.00 65 1011.7
20260506040803 49 88 7.0 13.0 0.00 0.00 0.00 65 1011.6
20260506040300 49 82 7.8 13.0 0.00 0.00 0.00 64 1011.7
20260506035756 49 92 8.7 11.3 0.00 0.00 0.00 64 1011.7
20260506035253 49 95 7.8 12.2 0.00 0.00 0.00 63 1011.7
20260506034750 49 87 7.8 12.2 0.00 0.00 0.00 63 1011.6
20260506034248 50 89 12.2 13.9 0.00 0.00 0.00 62 1011.6
20260506033744 50 95 10.4 14.8 0.00 0.00 0.00 62 1011.5
20260506033242 50 92 7.8 14.8 0.00 0.00 0.00 61 1011.2
20260506032738 50 87 9.6 11.3 0.00 0.00 0.00 61 1011.3
20260506032235 50 96 10.4 12.2 0.00 0.00 0.00 61 1011.6
20260506031732 51 87 7.8 11.3 0.00 0.00 0.00 60 1011.2
20260506031229 51 86 6.1 9.6 0.00 0.00 0.00 60 1011.5
20260506030728 51 84 8.7 10.4 0.00 0.00 0.00 59 1011.3
20260506030225 51 74 7.8 13.0 0.00 0.00 0.00 59 1011.1
20260506025722 52 94 7.8 14.8 0.00 0.00 0.00 58 1011.2
20260506025218 52 85 12.2 13.9 0.00 0.00 0.00 58 1011.1
20260506024715 52 75 7.0 12.2 0.00 0.00 0.00 58 1011.1
20260506024211 52 78 8.7 13.9 0.00 0.00 0.00 57 1010.8
20260506023708 53 85 8.7 13.9 0.00 0.00 0.00 57 1010.7
20260506023205 53 100 6.1 13.0 0.00 0.00 0.00 56 1010.6
20260506022702 53 82 9.6 13.0 0.00 0.00 0.00 56 1011.2
20260506022200 53 84 8.7 12.2 0.00 0.00 0.00 55 1011.2
20260506021657 54 88 10.4 14.8 0.00 0.00 0.00 55 1011.0
20260506021154 54 67 7.0 13.0 0.00 0.00 0.00 55 1010.6
20260506020651 54 74 14.8 16.5 0.00 0.00 0.00 55 1010.2
20260506020149 55 66 10.4 15.6 0.00 0.00 0.00 55 1010.8
20260506015647 55 62 12.2 16.5 0.00 0.00 0.00 53 1010.7
20260506015144 55 57 10.4 13.0 0.00 0.00 0.00 53 1010.7
20260506014641 56 64 7.8 14.8 0.00 0.00 0.00 52 1010.6
20260506014136 56 63 14.8 14.8 0.00 0.00 0.00 51 1010.8
20260506013635 56 32 7.8 14.8 0.00 0.00 0.00 51 1010.4
20260506013132 56 41 8.7 14.8 0.00 0.00 0.00 50 1010.0
20260506012628 56 45 7.8 14.8 0.00 0.00 0.00 50 1009.8
20260506012124 57 34 7.0 14.8 0.00 0.00 0.00 50 1009.7
20260506011622 57 51 8.7 13.9 0.00 0.00 0.00 50 1009.7
20260506011118 57 53 11.3 12.2 0.00 0.00 0.00 49 1009.6
20260506010617 57 53 12.2 18.2 0.00 0.00 0.00 49 1009.3
20260506010114 58 62 10.4 14.8 0.00 0.00 0.00 48 1009.4
20260506005611 58 48 8.7 12.2 0.00 0.00 0.00 48 1009.1
20260506005107 58 57 13.0 15.6 0.00 0.00 0.00 48 1008.8
20260506004604 58 70 16.5 18.2 0.00 0.00 0.00 47 1009.0
20260506004101 59 46 11.3 15.6 0.00 0.00 0.00 47 1008.9
20260506003557 59 52 9.6 18.2 0.00 0.00 0.00 46 1008.8
20260506003053 59 64 16.5 18.2 0.00 0.00 0.00 46 1008.4
20260506002549 60 69 13.9 15.6 0.00 0.00 0.00 45 1008.6
20260506002045 60 72 13.0 19.1 0.00 0.00 0.00 45 1008.6
20260506001541 60 59 12.2 14.8 0.00 0.00 0.00 46 1008.4
20260506001039 60 69 16.5 19.1 0.00 0.00 0.00 45 1008.3
20260506000536 60 72 15.6 18.2 0.00 0.00 0.00 45 1008.7
20260506000034 61 81 11.3 18.2 0.00 0.00 0.00 45 1008.6
20260505235531 61 66 13.0 16.5 0.00 0.00 0.00 44 1008.4
20260505235028 61 78 9.6 16.5 0.00 0.00 0.00 45 1008.7
20260505234525 62 69 10.4 13.9 0.00 0.00 0.00 44 1008.3
20260505234022 62 78 6.1 14.8 0.00 0.00 0.00 44 1008.4
20260505233519 62 50 7.8 13.0 0.00 0.00 0.00 44 1008.6
20260505233017 62 95 8.7 13.0 0.00 0.00 0.00 44 1008.6
20260505232514 63 81 7.0 11.3 0.00 0.00 0.00 44 1008.7
20260505232012 62 95 8.7 18.2 0.00 0.00 0.00 44 1008.7
20260505231509 62 53 9.6 15.6 0.00 0.00 0.00 44 1008.8
20260505231008 62 72 6.1 13.0 0.00 0.00 0.00 44 1008.7
20260505230504 62 55 11.3 13.0 0.00 0.00 0.00 44 1008.8
20260505230000 62 92 10.4 14.8 0.00 0.00 0.00 44 1008.8
20260505225458 62 87 11.3 14.8 0.00 0.00 0.00 44 1009.0
20260505224954 62 86 5.2 11.3 0.00 0.00 0.00 44 1008.8
20260505224450 62 76 7.0 13.9 0.00 0.00 0.00 44 1009.0
20260505223948 62 62 9.6 15.6 0.00 0.00 0.00 44 1008.9
20260505223445 62 65 11.3 13.0 0.00 0.00 0.00 44 1008.9
20260505222941 63 48 10.4 12.2 0.00 0.00 0.00 43 1009.1
20260505222437 63 59 9.6 12.2 0.00 0.00 0.00 43 1008.9
20260505221933 63 75 12.2 13.0 0.00 0.00 0.00 42 1009.1
20260505221431 63 57 13.9 14.8 0.00 0.00 0.00 43 1008.9
20260505220928 64 49 7.8 10.4 0.00 0.00 0.00 42 1009.2
20260505220425 63 91 4.3 11.3 0.00 0.00 0.00 43 1009.3
20260505215922 63 63 7.8 9.6 0.00 0.00 0.00 43 1009.2
20260505215420 63 74 12.2 12.2 0.00 0.00 0.00 42 1009.3
20260505214918 64 66 7.8 15.6 0.00 0.00 0.00 41 1009.0
20260505214415 64 67 9.6 13.9 0.00 0.00 0.00 41 1009.4
20260505213912 65 51 7.0 9.6 0.00 0.00 0.00 41 1009.8
20260505213410 65 41 3.5 8.7 0.00 0.00 0.00 40 1009.8
20260505212906 65 74 3.5 5.2 0.00 0.00 0.00 40 1010.1
20260505212403 64 93 4.3 7.0 0.00 0.00 0.00 43 1009.9
20260505211859 64 32 7.0 10.4 0.00 0.00 0.00 42 1010.2
20260505211357 64 114 4.3 7.0 0.00 0.00 0.00 43 1010.2
20260505210853 64 65 5.2 8.7 0.00 0.00 0.00 42 1010.3
20260505210350 62 92 7.0 9.6 0.00 0.00 0.00 43 1010.3
20260505205847 63 22 7.0 9.6 0.00 0.00 0.00 43 1010.3
20260505205346 63 44 4.3 7.8 0.00 0.00 0.00 42 1010.6
20260505204842 62 299 3.5 5.2 0.00 0.00 0.00 43 1010.7
20260505204340 62 7 7.0 12.2 0.00 0.00 0.00 43 1011.0
20260505203837 63 35 5.2 9.6 0.00 0.00 0.00 43 1010.6
20260505203333 63 96 5.2 8.7 0.00 0.00 0.00 43 1010.8
20260505202830 62 74 11.3 13.0 0.00 0.00 0.00 45 1010.8
20260505202326 63 69 10.4 13.0 0.00 0.00 0.00 43 1010.7
20260505201823 62 22 3.5 9.6 0.00 0.00 0.00 44 1010.8
20260505201320 62 2 7.0 9.6 0.00 0.00 0.00 44 1010.9
20260505200818 61 16 5.2 8.7 0.00 0.00 0.00 44 1010.7
20260505200315 62 20 6.1 13.0 0.00 0.00 0.00 44 1011.0
20260505195810 61 2 7.0 8.7 0.00 0.00 0.00 45 1010.7
20260505195308 62 74 9.6 11.3 0.00 0.00 0.00 45 1010.8
20260505194805 62 52 11.3 12.2 0.00 0.00 0.00 47 1010.4
20260505194302 61 23 7.0 11.3 0.00 0.00 0.00 45 1010.7
20260505193757 61 57 7.8 14.8 0.00 0.00 0.00 45 1010.7
20260505193255 62 67 11.3 15.6 0.00 0.00 0.00 45 1010.7
20260505192753 62 16 7.8 9.6 0.00 0.00 0.00 44 1010.8
20260505192251 61 14 7.8 11.3 0.00 0.00 0.00 44 1010.7
20260505191748 62 27 7.8 13.9 0.00 0.00 0.00 43 1010.9
20260505191247 62 32 9.6 12.2 0.00 0.00 0.00 43 1010.9
20260505190743 61 24 9.6 13.0 0.00 0.00 0.00 44 1011.0
20260505190243 61 54 7.0 14.8 0.00 0.00 0.00 45 1010.9
20260505185739 60 43 7.8 15.6 0.00 0.00 0.00 47 1011.1
20260505185236 60 28 7.0 8.7 0.00 0.00 0.00 46 1010.9
20260505184732 60 36 9.6 13.0 0.00 0.00 0.00 46 1010.9
20260505184230 60 355 7.8 10.4 0.00 0.00 0.00 47 1011.1
20260505183726 60 15 10.4 13.9 0.00 0.00 0.00 46 1011.6
20260505183224 60 3 5.2 13.0 0.00 0.00 0.00 46 1010.8
20260505182720 61 8 7.0 10.4 0.00 0.00 0.00 45 1010.9
20260505182217 59 6 8.7 10.4 0.00 0.00 0.00 47 1010.9
20260505181713 59 33 12.2 18.2 0.00 0.00 0.00 46 1011.2
20260505181211 59 0 7.0 13.9 0.00 0.00 0.00 47 1011.1
20260505180707 60 351 10.4 13.0 0.00 0.00 0.00 46 1011.3
20260505180204 59 29 5.2 12.2 0.00 0.00 0.00 48 1011.1
20260505175700 60 18 8.7 13.0 0.00 0.00 0.00 46 1011.3
20260505175157 60 30 9.6 12.2 0.00 0.00 0.00 46 1011.2
20260505174653 61 7 13.9 14.8 0.00 0.00 0.00 45 1011.1
20260505174149 59 17 9.6 16.5 0.00 0.00 0.00 47 1011.1
20260505173646 62 34 5.2 14.8 0.00 0.00 0.00 44 1011.0
20260505173144 60 34 9.6 18.2 0.00 0.00 0.00 46 1010.8
20260505172641 60 354 8.7 13.0 0.00 0.00 0.00 47 1011.1
20260505172137 61 9 12.2 16.5 0.00 0.00 0.00 46 1010.9
20260505171632 59 34 6.1 13.0 0.00 0.00 0.00 47 1010.9
20260505171129 61 1 8.7 13.0 0.00 0.00 0.00 45 1011.0
20260505170627 61 41 9.6 16.5 0.00 0.00 0.00 46 1011.3
20260505170123 59 50 7.8 15.6 0.00 0.00 0.00 49 1010.9
20260505165618 59 49 9.6 15.6 0.00 0.00 0.00 49 1010.8
20260505165114 59 0 13.9 17.4 0.00 0.00 0.00 48 1011.2
20260505164610 59 45 10.4 16.5 0.00 0.00 0.00 48 1011.0
20260505164108 59 33 7.0 13.0 0.00 0.00 0.00 48 1011.0
20260505163606 59 25 7.0 16.5 0.00 0.00 0.00 49 1011.1
20260505163103 59 39 7.8 13.9 0.00 0.00 0.00 49 1011.3
20260505162600 57 30 13.0 14.8 0.00 0.00 0.00 51 1011.2
20260505162058 57 13 12.2 14.8 0.00 0.00 0.00 50 1011.1
20260505161555 58 16 9.6 14.8 0.00 0.00 0.00 49 1011.2